COSMOS 2491 DEB, 44912

Orbit data source: Space-Track

COSMOS 2491 DEB, 44912 is space debris in LEO originally from a launch on Wed, 25 Dec 2013 UTC launched from the Plesetsk Missile And Space Complex (PKMTR). Debris objects in space refer to the collection of defunct objects orbiting the Earth. Examples of debris include non-operational satellites, rocket bodies, and fragments generated from explosions, collisions, or faulty payload assembly.

Loading next visibility...
Identifier
44912, 2013-076F
Orbit
LEO
Country
Flag of CISCIS
Related business
Manufacturer
TsNIIKhM
Mission
Spacecraft
Bus & Motor
Unknown
Mass
Unknown
Launch date (UTC)
2013-12-25 (12 years ago)
Launch vehicle
Unknown
Launch site
Plesetsk Missile And Space Complex (PKMTR)
Object type
Payload
Rocket body
Debris
Shape & HBR
Unknown shape, 0.1 m
Radar Cross Section
Small (<0.1 m²)

Expand to show TLE details & history
Last TLE update: 5 days ago

TLE from 5 days ago
0 COSMOS 2491 DEB
1 44912U 13076F   25303.62690477  .00009089  00000-0  37623-1 0  9999
2 44912  82.4439 257.8140 0236712 332.4410  26.4298 12.75867513268593
Epoch: 2025-10-30T15:02Z
TLE epoch observation values (Epoch: 2025-10-30T15:02:44.572Z)
Latitude
-0.00007°
Longitude
-7.05471°
Altitude
1,197.751 km
Speed
7.331 km/s
True Right ascension
17h 11m 15s
True Declination
0° 00' 00"
Sunlit
Object was in daylight at epoch
Visualization orbit readout
Latitude
Unknown
Longitude
Unknown
Altitude
Unknown
Speed
Unknown
Apparent Right ascension
Unknown
Apparent Declination
Unknown
Sunlit
N/A
Visualization observer readout
Local Sidereal Time
00:35:41
Azimuth
Unknown
Elevation
Unknown
Doppler factor
Unknown
Orbital elements
Apogee altitude
1,538.497 km
Perigee altitude
1,172.372 km
Semi-major axis
7,733.571 km
Eccentricity
0.02367
Inclination
82.4439°
RAAN
257.814°
Arg. of periapsis
332.441°
True anomaly
27.66987°
Mean anomaly
26.4298°
Eccentric anomaly
27.04651°
Mean motion
3.19134 °/min
Orbital period
112.81 mins
BSTAR
0.037623
Loading maneuver chart data...
Computing Atmospheric mass density...
Loading historical data...
Loading historical data...
Loading historical data...
Loading historical data...
Loading historical data...
Loading historical data...
Loading historical data...

Documentation

Showing up to 5 results
|